Time,TemperatureF,DewpointF,PressureIn,WindDirection,WindDirectionDegrees,WindSpeedMPH,WindSpeedGustMPH,Humidity,HourlyPrecipIn,Conditions,Clouds,dailyrainin,SoftwareType,DateUTC
2013-04-16 00:00:00,56.5,53.2,29.87,SE,135,2.0,2.0,89,0.00,,,0.04,meteohub,2013-04-16 04:00:00,
2013-04-16 00:01:00,56.5,53.2,29.87,SE,135,2.0,2.0,89,0.00,,,0.04,meteohub,2013-04-16 04:01:00,
2013-04-16 00:02:00,56.5,53.2,29.87,SE,135,2.0,2.0,89,0.00,,,0.04,meteohub,2013-04-16 04:02:00,
2013-04-16 00:08:00,57.0,54.1,29.87,South,180,2.0,2.0,90,0.00,,,0.00,meteohub,2013-04-16 04:08:00,
2013-04-16 00:13:00,57.6,54.0,29.86,South,180,3.0,3.0,88,0.00,,,0.00,meteohub,2013-04-16 04:13:00,
2013-04-16 00:18:00,57.9,54.1,29.86,South,180,2.0,8.0,87,0.00,,,0.00,meteohub,2013-04-16 04:18:00,
2013-04-16 00:23:00,58.3,53.8,29.86,NE,45,4.0,8.0,85,0.00,,,0.00,meteohub,2013-04-16 04:23:00,
2013-04-16 00:28:00,58.5,53.6,29.85,South,180,4.0,7.0,84,0.00,,,0.00,meteohub,2013-04-16 04:28:00,
2013-04-16 00:33:00,58.8,54.0,29.85,SW,225,3.0,7.0,84,0.00,,,0.00,meteohub,2013-04-16 04:33:00,
2013-04-16 00:39:00,58.8,53.4,29.85,East,90,4.0,7.0,82,0.00,,,0.00,meteohub,2013-04-16 04:39:00,
2013-04-16 00:44:00,59.0,52.9,29.86,South,180,3.0,7.0,80,0.00,,,0.00,meteohub,2013-04-16 04:44:00,
2013-04-16 00:49:00,59.2,52.7,29.86,South,180,4.0,7.0,79,0.00,,,0.00,meteohub,2013-04-16 04:49:00,
2013-04-16 00:54:00,59.4,52.9,29.85,SW,225,4.0,7.0,79,0.00,,,0.00,meteohub,2013-04-16 04:54:00,
2013-04-16 00:59:00,59.7,52.9,29.85,East,90,4.0,7.0,78,0.00,,,0.00,meteohub,2013-04-16 04:59:00,
2013-04-16 01:04:00,59.7,52.5,29.85,South,180,5.0,7.0,77,0.00,,,0.00,meteohub,2013-04-16 05:04:00,
2013-04-16 01:09:00,60.1,52.5,29.85,South,180,3.0,7.0,76,0.00,,,0.00,meteohub,2013-04-16 05:09:00,
2013-04-16 01:14:00,60.3,52.7,29.85,South,180,4.0,7.0,76,0.00,,,0.00,meteohub,2013-04-16 05:14:00,
2013-04-16 01:20:00,60.4,52.5,29.85,West,270,4.0,6.0,75,0.00,,,0.00,meteohub,2013-04-16 05:20:00,
2013-04-16 01:25:00,60.4,52.5,29.85,SW,225,3.0,6.0,75,0.00,,,0.00,meteohub,2013-04-16 05:25:00,
2013-04-16 01:30:00,60.6,52.7,29.85,WNW,293,4.0,6.0,75,0.00,,,0.00,meteohub,2013-04-16 05:30:00,
2013-04-16 01:35:00,60.6,52.3,29.85,SW,225,2.0,9.0,74,0.00,,,0.00,meteohub,2013-04-16 05:35:00,
2013-04-16 01:40:00,60.6,52.3,29.85,SW,225,4.0,9.0,74,0.00,,,0.00,meteohub,2013-04-16 05:40:00,
2013-04-16 01:45:00,60.4,52.5,29.84,SW,225,4.0,9.0,75,0.00,,,0.00,meteohub,2013-04-16 05:45:00,
2013-04-16 01:51:00,60.6,52.3,29.85,SW,225,2.0,8.0,74,0.00,,,0.00,meteohub,2013-04-16 05:51:00,
2013-04-16 01:56:00,60.6,52.3,29.85,SW,225,4.0,8.0,74,0.00,,,0.00,meteohub,2013-04-16 05:56:00,
2013-04-16 02:01:00,60.6,52.3,29.85,NW,315,3.0,8.0,74,0.00,,,0.00,meteohub,2013-04-16 06:01:00,
2013-04-16 02:06:00,60.6,52.3,29.85,NW,315,3.0,5.0,74,0.00,,,0.00,meteohub,2013-04-16 06:06:00,
2013-04-16 02:11:00,60.8,52.2,29.85,South,180,2.0,4.0,73,0.00,,,0.00,meteohub,2013-04-16 06:11:00,
2013-04-16 02:16:00,60.8,52.2,29.85,South,180,4.0,4.0,73,0.00,,,0.00,meteohub,2013-04-16 06:16:00,
2013-04-16 02:22:00,60.8,52.2,29.85,SW,225,2.0,4.0,73,0.00,,,0.00,meteohub,2013-04-16 06:22:00,
2013-04-16 02:27:00,60.6,52.3,29.85,SW,225,3.0,5.0,74,0.00,,,0.00,meteohub,2013-04-16 06:27:00,
2013-04-16 02:32:00,60.6,52.3,29.86,West,270,2.0,5.0,74,0.00,,,0.00,meteohub,2013-04-16 06:32:00,
2013-04-16 02:37:00,60.6,52.3,29.86,West,270,0.0,5.0,74,0.00,,,0.00,meteohub,2013-04-16 06:37:00,
2013-04-16 02:42:00,60.3,52.0,29.86,NW,315,0.0,4.0,74,0.00,,,0.00,meteohub,2013-04-16 06:42:00,
2013-04-16 02:47:00,59.9,52.0,29.87,North,0,4.0,4.0,75,0.00,,,0.00,meteohub,2013-04-16 06:47:00,
2013-04-16 02:52:00,58.3,50.4,29.87,North,0,4.0,9.0,75,0.00,,,0.00,meteohub,2013-04-16 06:52:00,
2013-04-16 02:57:00,56.3,48.9,29.88,NE,45,5.0,9.0,76,0.00,,,0.00,meteohub,2013-04-16 06:57:00,
2013-04-16 03:02:00,54.7,47.7,29.88,NE,45,5.0,9.0,77,0.00,,,0.00,meteohub,2013-04-16 07:02:00,
2013-04-16 03:07:00,53.4,46.8,29.88,North,0,13.0,13.0,78,0.00,,,0.00,meteohub,2013-04-16 07:07:00,
2013-04-16 03:12:00,52.5,45.9,29.88,North,0,9.0,13.0,78,0.00,,,0.00,meteohub,2013-04-16 07:12:00,
2013-04-16 03:17:00,52.0,46.0,29.89,NW,315,4.0,13.0,80,0.00,,,0.00,meteohub,2013-04-16 07:17:00,
2013-04-16 03:22:00,51.6,46.2,29.89,NW,315,2.0,13.0,82,0.00,,,0.00,meteohub,2013-04-16 07:22:00,
2013-04-16 03:27:00,51.3,46.2,29.90,NW,315,3.0,9.0,83,0.00,,,0.00,meteohub,2013-04-16 07:27:00,
2013-04-16 03:32:00,51.1,46.0,29.90,West,270,2.0,4.0,83,0.00,,,0.00,meteohub,2013-04-16 07:32:00,
2013-04-16 03:37:00,51.1,46.0,29.90,North,0,3.0,6.0,83,0.00,,,0.00,meteohub,2013-04-16 07:37:00,
2013-04-16 03:42:00,50.9,45.9,29.91,NW,315,2.0,6.0,83,0.00,,,0.00,meteohub,2013-04-16 07:42:00,
2013-04-16 03:47:00,50.7,46.0,29.91,North,0,4.0,4.0,84,0.00,,,0.00,meteohub,2013-04-16 07:47:00,
2013-04-16 03:52:00,50.5,45.9,29.91,North,0,4.0,4.0,84,0.00,,,0.00,meteohub,2013-04-16 07:52:00,
2013-04-16 03:57:00,50.2,45.5,29.92,NW,315,2.0,4.0,84,0.00,,,0.00,meteohub,2013-04-16 07:57:00,
2013-04-16 04:02:00,50.0,45.3,29.91,NW,315,2.0,4.0,84,0.00,,,0.00,meteohub,2013-04-16 08:02:00,
2013-04-16 04:07:00,50.0,45.3,29.90,NW,315,2.0,4.0,84,0.00,,,0.00,meteohub,2013-04-16 08:07:00,
2013-04-16 04:12:00,49.8,45.5,29.90,NW,315,2.0,3.0,85,0.00,,,0.00,meteohub,2013-04-16 08:12:00,
2013-04-16 04:17:00,49.6,45.7,29.90,North,0,2.0,3.0,86,0.00,,,0.00,meteohub,2013-04-16 08:17:00,
2013-04-16 04:22:00,49.5,45.5,29.91,North,0,0.0,3.0,86,0.00,,,0.00,meteohub,2013-04-16 08:22:00,
2013-04-16 04:27:00,49.5,45.5,29.91,NW,315,2.0,3.0,86,0.00,,,0.00,meteohub,2013-04-16 08:27:00,
2013-04-16 04:32:00,49.3,45.3,29.91,West,270,0.0,3.0,86,0.00,,,0.00,meteohub,2013-04-16 08:32:00,
2013-04-16 04:37:00,49.3,45.3,29.91,NW,315,0.0,3.0,86,0.00,,,0.00,meteohub,2013-04-16 08:37:00,
2013-04-16 04:42:00,49.1,45.1,29.91,NE,45,1.0,4.0,86,0.00,,,0.00,meteohub,2013-04-16 08:42:00,
2013-04-16 04:47:00,49.1,45.1,29.91,West,270,0.0,4.0,86,0.00,,,0.00,meteohub,2013-04-16 08:47:00,
2013-04-16 04:52:00,49.1,45.1,29.90,NW,315,0.0,4.0,86,0.00,,,0.00,meteohub,2013-04-16 08:52:00,
2013-04-16 04:57:00,49.1,45.1,29.90,North,0,0.0,2.0,86,0.00,,,0.00,meteohub,2013-04-16 08:57:00,
2013-04-16 05:02:00,49.1,45.1,29.91,NW,315,0.0,0.0,86,0.00,,,0.00,meteohub,2013-04-16 09:02:00,
2013-04-16 05:07:00,48.9,45.0,29.90,NW,315,0.0,0.0,86,0.00,,,0.00,meteohub,2013-04-16 09:07:00,
2013-04-16 05:12:00,48.9,45.0,29.90,North,0,0.0,0.0,86,0.00,,,0.00,meteohub,2013-04-16 09:12:00,
2013-04-16 05:17:00,48.9,45.0,29.90,SW,225,0.0,0.0,86,0.00,,,0.00,meteohub,2013-04-16 09:17:00,
2013-04-16 05:22:00,48.9,45.0,29.91,SW,225,0.0,0.0,86,0.00,,,0.00,meteohub,2013-04-16 09:22:00,
2013-04-16 05:27:00,48.9,45.1,29.90,SW,225,0.0,0.0,87,0.00,,,0.00,meteohub,2013-04-16 09:27:00,
2013-04-16 05:32:00,48.9,45.1,29.90,SW,225,0.0,0.0,87,0.00,,,0.00,meteohub,2013-04-16 09:32:00,
2013-04-16 05:37:00,48.9,45.0,29.91,West,270,0.0,0.0,86,0.00,,,0.00,meteohub,2013-04-16 09:37:00,
2013-04-16 05:42:00,48.9,45.0,29.91,NE,45,0.0,0.0,86,0.00,,,0.00,meteohub,2013-04-16 09:42:00,
2013-04-16 05:47:00,48.9,45.0,29.92,NW,315,0.0,0.0,86,0.00,,,0.00,meteohub,2013-04-16 09:47:00,
2013-04-16 05:52:00,48.7,45.0,29.92,NW,315,0.0,0.0,87,0.00,,,0.00,meteohub,2013-04-16 09:52:00,
2013-04-16 05:57:00,48.7,45.0,29.92,NW,315,0.0,0.0,87,0.00,,,0.00,meteohub,2013-04-16 09:57:00,
2013-04-16 06:02:00,48.7,45.0,29.92,NW,315,0.0,0.0,87,0.00,,,0.00,meteohub,2013-04-16 10:02:00,
2013-04-16 06:07:00,48.7,45.0,29.92,NW,315,0.0,0.0,87,0.00,,,0.00,meteohub,2013-04-16 10:07:00,
2013-04-16 06:12:00,48.9,45.1,29.89,South,180,1.0,0.0,87,0.01,,,0.01,meteohub,2013-04-16 10:12:00,
2013-04-16 06:17:00,48.7,45.0,29.92,NW,315,2.0,2.0,87,0.01,,,0.01,meteohub,2013-04-16 10:17:00,
2013-04-16 06:22:00,48.7,45.0,29.93,West,270,2.0,2.0,87,0.01,,,0.01,meteohub,2013-04-16 10:22:00,
2013-04-16 06:27:00,48.6,44.8,29.92,South,180,0.0,2.0,87,0.01,,,0.01,meteohub,2013-04-16 10:27:00,
2013-04-16 06:32:00,48.6,45.1,29.93,SW,225,0.0,2.0,88,0.01,,,0.01,meteohub,2013-04-16 10:32:00,
2013-04-16 06:37:00,48.4,45.0,29.93,West,270,0.0,2.0,88,0.01,,,0.01,meteohub,2013-04-16 10:37:00,
2013-04-16 06:42:00,48.4,45.0,29.94,West,270,0.0,2.0,88,0.01,,,0.01,meteohub,2013-04-16 10:42:00,
2013-04-16 06:47:00,48.4,45.0,29.94,NW,315,0.0,2.0,88,0.01,,,0.01,meteohub,2013-04-16 10:47:00,
2013-04-16 06:52:00,48.2,44.8,29.95,NW,315,0.0,0.0,88,0.01,,,0.01,meteohub,2013-04-16 10:52:00,
2013-04-16 06:57:00,48.2,44.8,29.94,West,270,0.0,0.0,88,0.01,,,0.01,meteohub,2013-04-16 10:57:00,
2013-04-16 07:02:00,48.2,44.8,29.96,West,270,0.0,0.0,88,0.01,,,0.01,meteohub,2013-04-16 11:02:00,
2013-04-16 07:07:00,48.0,45.0,29.95,SW,225,0.0,0.0,89,0.01,,,0.01,meteohub,2013-04-16 11:07:00,
2013-04-16 07:12:00,48.0,45.0,29.95,SW,225,0.0,0.0,89,0.00,,,0.01,meteohub,2013-04-16 11:12:00,
2013-04-16 07:17:00,48.0,45.0,29.94,East,90,0.0,0.0,89,0.00,,,0.01,meteohub,2013-04-16 11:17:00,
2013-04-16 07:22:00,48.0,45.0,29.94,NW,315,0.0,0.0,89,0.00,,,0.01,meteohub,2013-04-16 11:22:00,
2013-04-16 07:27:00,48.0,45.0,29.95,North,0,0.0,0.0,89,0.00,,,0.01,meteohub,2013-04-16 11:27:00,
2013-04-16 07:32:00,47.8,44.8,29.94,NW,315,1.0,2.0,89,0.00,,,0.01,meteohub,2013-04-16 11:32:00,
2013-04-16 07:37:00,47.8,44.8,29.95,NE,45,4.0,4.0,89,0.00,,,0.01,meteohub,2013-04-16 11:37:00,
2013-04-16 07:42:00,47.8,44.8,29.95,NW,315,1.0,4.0,89,0.00,,,0.01,meteohub,2013-04-16 11:42:00,
2013-04-16 07:47:00,47.8,44.8,29.96,SW,225,0.0,4.0,89,0.00,,,0.01,meteohub,2013-04-16 11:47:00,
2013-04-16 07:53:00,47.8,45.0,29.97,SW,225,2.0,4.0,90,0.00,,,0.01,meteohub,2013-04-16 11:53:00,
2013-04-16 07:58:00,47.8,45.0,29.97,NW,315,1.0,2.0,90,0.00,,,0.01,meteohub,2013-04-16 11:58:00,
2013-04-16 08:03:00,47.8,45.0,29.97,NE,45,0.0,2.0,90,0.00,,,0.01,meteohub,2013-04-16 12:03:00,
2013-04-16 08:08:00,47.8,45.0,29.97,NW,315,2.0,2.0,90,0.00,,,0.01,meteohub,2013-04-16 12:08:00,
2013-04-16 08:13:00,47.8,45.0,29.97,NW,315,0.0,2.0,90,0.00,,,0.01,meteohub,2013-04-16 12:13:00,
2013-04-16 08:18:00,47.8,45.0,29.99,NW,315,1.0,2.0,90,0.00,,,0.01,meteohub,2013-04-16 12:18:00,
2013-04-16 08:23:00,47.8,44.8,29.99,NW,315,2.0,2.0,89,0.00,,,0.01,meteohub,2013-04-16 12:23:00,
2013-04-16 08:29:00,47.8,44.8,29.98,North,0,2.0,2.0,89,0.00,,,0.01,meteohub,2013-04-16 12:29:00,
2013-04-16 08:34:00,47.8,44.8,29.99,NW,315,1.0,2.0,89,0.00,,,0.01,meteohub,2013-04-16 12:34:00,
2013-04-16 08:39:00,47.8,44.8,29.99,North,0,2.0,4.0,89,0.00,,,0.01,meteohub,2013-04-16 12:39:00,
2013-04-16 08:44:00,47.8,44.8,29.99,NE,45,2.0,4.0,89,0.00,,,0.01,meteohub,2013-04-16 12:44:00,
2013-04-16 08:49:00,47.7,44.6,29.99,NW,315,2.0,4.0,89,0.00,,,0.01,meteohub,2013-04-16 12:49:00,
2013-04-16 08:54:00,47.5,44.4,29.99,NW,315,2.0,4.0,89,0.00,,,0.01,meteohub,2013-04-16 12:54:00,
2013-04-16 08:59:00,47.5,44.4,29.99,North,0,4.0,4.0,89,0.00,,,0.01,meteohub,2013-04-16 12:59:00,
2013-04-16 09:04:00,47.5,44.4,29.99,NW,315,2.0,4.0,89,0.00,,,0.01,meteohub,2013-04-16 13:04:00,
2013-04-16 09:10:00,47.1,44.1,29.99,NW,315,2.0,4.0,89,0.00,,,0.01,meteohub,2013-04-16 13:10:00,
2013-04-16 09:15:00,46.9,43.9,29.99,North,0,2.0,4.0,89,0.00,,,0.01,meteohub,2013-04-16 13:15:00,
2013-04-16 09:20:00,46.6,43.5,29.99,North,0,2.0,4.0,89,0.00,,,0.01,meteohub,2013-04-16 13:20:00,
2013-04-16 09:25:00,46.4,43.3,29.99,NW,315,1.0,4.0,89,0.00,,,0.01,meteohub,2013-04-16 13:25:00,
2013-04-16 09:30:00,46.4,43.3,30.00,NW,315,2.0,3.0,89,0.00,,,0.01,meteohub,2013-04-16 13:30:00,
2013-04-16 09:36:00,46.4,43.3,30.00,NW,315,3.0,4.0,89,0.00,,,0.01,meteohub,2013-04-16 13:36:00,
2013-04-16 09:41:00,46.0,43.0,29.99,North,0,1.0,4.0,89,0.00,,,0.01,meteohub,2013-04-16 13:41:00,
2013-04-16 09:46:00,46.0,43.0,29.99,NE,45,5.0,5.0,89,0.00,,,0.01,meteohub,2013-04-16 13:46:00,
2013-04-16 09:51:00,45.9,42.8,30.00,North,0,3.0,5.0,89,0.00,,,0.01,meteohub,2013-04-16 13:51:00,
2013-04-16 09:56:00,45.9,42.8,30.00,NW,315,2.0,5.0,89,0.00,,,0.01,meteohub,2013-04-16 13:56:00,
2013-04-16 10:01:00,46.2,43.2,30.00,NW,315,2.0,5.0,89,0.00,,,0.01,meteohub,2013-04-16 14:01:00,
2013-04-16 10:06:00,46.4,43.0,30.00,NW,315,2.0,4.0,88,0.00,,,0.01,meteohub,2013-04-16 14:06:00,
2013-04-16 10:11:00,46.8,43.3,30.00,North,0,4.0,4.0,88,0.00,,,0.01,meteohub,2013-04-16 14:11:00,
2013-04-16 10:17:00,46.9,43.3,30.00,North,0,4.0,5.0,87,0.00,,,0.01,meteohub,2013-04-16 14:17:00,
2013-04-16 10:22:00,47.5,43.5,30.01,West,270,4.0,5.0,86,0.00,,,0.01,meteohub,2013-04-16 14:22:00,
2013-04-16 10:27:00,47.7,43.3,30.01,NE,45,4.0,4.0,85,0.00,,,0.01,meteohub,2013-04-16 14:27:00,
2013-04-16 10:32:00,47.8,43.2,30.01,West,270,2.0,4.0,84,0.00,,,0.01,meteohub,2013-04-16 14:32:00,
2013-04-16 10:37:00,48.0,43.2,30.01,West,270,2.0,4.0,83,0.00,,,0.01,meteohub,2013-04-16 14:37:00,
2013-04-16 10:42:00,48.2,42.6,30.02,West,270,2.0,4.0,81,0.00,,,0.01,meteohub,2013-04-16 14:42:00,
2013-04-16 10:47:00,48.2,42.3,30.03,NW,315,2.0,4.0,80,0.00,,,0.01,meteohub,2013-04-16 14:47:00,
2013-04-16 10:52:00,48.4,42.3,30.03,South,180,2.0,4.0,79,0.00,,,0.01,meteohub,2013-04-16 14:52:00,
2013-04-16 10:57:00,48.4,41.9,30.03,SW,225,2.0,4.0,78,0.00,,,0.01,meteohub,2013-04-16 14:57:00,
2013-04-16 11:02:00,48.6,42.1,30.04,West,270,4.0,4.0,78,0.00,,,0.01,meteohub,2013-04-16 15:02:00,
2013-04-16 11:07:00,48.6,42.3,30.04,North,0,2.0,4.0,79,0.00,,,0.01,meteohub,2013-04-16 15:07:00,
2013-04-16 11:12:00,48.9,42.6,30.04,North,0,2.0,4.0,79,0.00,,,0.01,meteohub,2013-04-16 15:12:00,
2013-04-16 11:17:00,49.1,42.8,30.04,West,270,1.0,4.0,79,0.00,,,0.01,meteohub,2013-04-16 15:17:00,
2013-04-16 11:22:00,49.8,43.5,30.04,North,0,2.0,3.0,79,0.00,,,0.01,meteohub,2013-04-16 15:22:00,
2013-04-16 11:27:00,50.2,43.3,30.04,North,0,3.0,3.0,77,0.00,,,0.01,meteohub,2013-04-16 15:27:00,
2013-04-16 11:32:00,50.4,43.2,30.04,SW,225,2.0,4.0,76,0.00,,,0.01,meteohub,2013-04-16 15:32:00,
2013-04-16 11:37:00,50.5,43.0,30.05,NW,315,3.0,4.0,75,0.00,,,0.01,meteohub,2013-04-16 15:37:00,
2013-04-16 11:42:00,50.5,42.6,30.05,NW,315,2.0,4.0,74,0.00,,,0.01,meteohub,2013-04-16 15:42:00,
2013-04-16 11:47:00,50.7,42.8,30.04,SW,225,3.0,4.0,74,0.00,,,0.01,meteohub,2013-04-16 15:47:00,
2013-04-16 11:52:00,51.3,43.0,30.04,West,270,4.0,4.0,73,0.00,,,0.01,meteohub,2013-04-16 15:52:00,
2013-04-16 11:57:00,51.8,43.0,30.04,West,270,7.0,7.0,72,0.00,,,0.01,meteohub,2013-04-16 15:57:00,
2013-04-16 12:03:00,52.3,42.8,30.04,West,270,5.0,7.0,70,0.00,,,0.01,meteohub,2013-04-16 16:03:00,
2013-04-16 12:08:00,52.9,42.6,30.04,NW,315,4.0,7.0,68,0.00,,,0.01,meteohub,2013-04-16 16:08:00,
2013-04-16 12:13:00,53.4,42.8,30.04,SW,225,5.0,7.0,67,0.00,,,0.01,meteohub,2013-04-16 16:13:00,
2013-04-16 12:18:00,53.4,42.3,30.04,NW,315,5.0,7.0,66,0.00,,,0.01,meteohub,2013-04-16 16:18:00,
2013-04-16 12:23:00,53.2,41.7,30.04,NW,315,5.0,5.0,65,0.00,,,0.01,meteohub,2013-04-16 16:23:00,
2013-04-16 12:28:00,53.4,41.9,30.04,NW,315,7.0,7.0,65,0.00,,,0.01,meteohub,2013-04-16 16:28:00,
2013-04-16 12:33:00,53.4,41.2,30.04,SW,225,4.0,7.0,63,0.00,,,0.01,meteohub,2013-04-16 16:33:00,
2013-04-16 12:39:00,53.8,41.5,30.04,SW,225,3.0,7.0,63,0.00,,,0.01,meteohub,2013-04-16 16:39:00,
2013-04-16 12:44:00,54.1,41.9,30.04,NW,315,7.0,7.0,63,0.00,,,0.01,meteohub,2013-04-16 16:44:00,
2013-04-16 12:49:00,54.3,41.5,30.04,NW,315,4.0,9.0,62,0.00,,,0.01,meteohub,2013-04-16 16:49:00,
2013-04-16 12:54:00,54.7,41.9,30.03,NW,315,4.0,9.0,62,0.00,,,0.01,meteohub,2013-04-16 16:54:00,
2013-04-16 12:59:00,55.6,42.3,30.03,North,0,5.0,9.0,61,0.00,,,0.01,meteohub,2013-04-16 16:59:00,
2013-04-16 13:05:00,55.9,42.3,30.03,NW,315,4.0,6.0,60,0.00,,,0.01,meteohub,2013-04-16 17:05:00,
2013-04-16 13:10:00,56.7,42.1,30.03,West,270,2.0,6.0,58,0.00,,,0.01,meteohub,2013-04-16 17:10:00,
2013-04-16 13:15:00,57.0,41.5,30.03,SW,225,4.0,6.0,56,0.00,,,0.01,meteohub,2013-04-16 17:15:00,
2013-04-16 13:20:00,57.2,40.3,30.03,NW,315,5.0,8.0,53,0.00,,,0.01,meteohub,2013-04-16 17:20:00,
2013-04-16 13:25:00,57.9,40.5,30.03,West,270,4.0,8.0,52,0.00,,,0.01,meteohub,2013-04-16 17:25:00,
2013-04-16 13:30:00,57.9,39.4,30.03,North,0,5.0,10.0,50,0.00,,,0.01,meteohub,2013-04-16 17:30:00,
2013-04-16 13:35:00,58.5,39.4,30.03,NW,315,4.0,10.0,49,0.00,,,0.01,meteohub,2013-04-16 17:35:00,
2013-04-16 13:41:00,58.6,38.5,30.04,NW,315,4.0,10.0,47,0.00,,,0.01,meteohub,2013-04-16 17:41:00,
2013-04-16 13:46:00,58.1,37.9,30.04,SW,225,6.0,9.0,47,0.00,,,0.01,meteohub,2013-04-16 17:46:00,
2013-04-16 13:51:00,58.5,38.3,30.05,NW,315,7.0,10.0,47,0.00,,,0.01,meteohub,2013-04-16 17:51:00,
2013-04-16 13:56:00,58.6,38.5,30.05,SW,225,3.0,10.0,47,0.00,,,0.01,meteohub,2013-04-16 17:56:00,
2013-04-16 14:02:00,59.0,37.8,30.05,West,270,4.0,10.0,45,0.00,,,0.01,meteohub,2013-04-16 18:02:00,
2013-04-16 14:07:00,59.2,37.2,30.06,West,270,9.0,10.0,44,0.00,,,0.01,meteohub,2013-04-16 18:07:00,
2013-04-16 14:12:00,59.5,38.1,30.06,NW,315,3.0,9.0,45,0.00,,,0.01,meteohub,2013-04-16 18:12:00,
2013-04-16 14:17:00,59.9,37.9,30.06,NW,315,4.0,9.0,44,0.00,,,0.01,meteohub,2013-04-16 18:17:00,
2013-04-16 14:22:00,60.1,38.1,30.06,West,270,4.0,9.0,44,0.00,,,0.01,meteohub,2013-04-16 18:22:00,
2013-04-16 14:27:00,59.9,37.9,30.06,SW,225,12.0,12.0,44,0.00,,,0.01,meteohub,2013-04-16 18:27:00,
2013-04-16 14:32:00,59.7,37.2,30.06,NW,315,7.0,12.0,43,0.00,,,0.01,meteohub,2013-04-16 18:32:00,
2013-04-16 14:37:00,59.7,36.5,30.06,West,270,3.0,12.0,42,0.00,,,0.01,meteohub,2013-04-16 18:37:00,
2013-04-16 14:42:00,60.1,37.6,30.06,SW,225,5.0,12.0,43,0.00,,,0.01,meteohub,2013-04-16 18:42:00,
2013-04-16 14:47:00,60.1,37.6,30.06,North,0,3.0,7.0,43,0.00,,,0.01,meteohub,2013-04-16 18:47:00,
2013-04-16 14:52:00,60.3,37.0,30.06,West,270,5.0,7.0,42,0.00,,,0.01,meteohub,2013-04-16 18:52:00,
2013-04-16 14:57:00,60.8,37.6,30.07,SW,225,6.0,9.0,42,0.00,,,0.01,meteohub,2013-04-16 18:57:00,
2013-04-16 15:03:00,60.6,37.4,30.07,NW,315,12.0,13.0,42,0.00,,,0.01,meteohub,2013-04-16 19:03:00,
2013-04-16 15:08:00,60.4,37.2,30.07,NW,315,7.0,13.0,42,0.00,,,0.01,meteohub,2013-04-16 19:08:00,
2013-04-16 15:13:00,60.6,36.9,30.07,West,270,8.0,13.0,41,0.00,,,0.01,meteohub,2013-04-16 19:13:00,
2013-04-16 15:18:00,60.4,36.7,30.08,WSW,248,8.0,12.0,41,0.00,,,0.01,meteohub,2013-04-16 19:18:00,
2013-04-16 15:23:00,60.6,36.9,30.08,SW,225,6.0,11.0,41,0.00,,,0.01,meteohub,2013-04-16 19:23:00,
2013-04-16 15:28:00,60.6,36.1,30.08,North,0,4.0,11.0,40,0.00,,,0.01,meteohub,2013-04-16 19:28:00,
2013-04-16 15:34:00,60.3,36.5,30.08,NW,315,4.0,8.0,41,0.00,,,0.01,meteohub,2013-04-16 19:34:00,
2013-04-16 15:39:00,60.3,35.8,30.08,West,270,5.0,8.0,40,0.00,,,0.01,meteohub,2013-04-16 19:39:00,
2013-04-16 15:44:00,60.3,34.5,30.08,NW,315,8.0,8.0,38,0.00,,,0.01,meteohub,2013-04-16 19:44:00,
2013-04-16 15:49:00,59.9,34.2,30.08,NW,315,4.0,8.0,38,0.00,,,0.01,meteohub,2013-04-16 19:49:00,
2013-04-16 15:54:00,60.1,36.3,30.09,NW,315,4.0,8.0,41,0.00,,,0.01,meteohub,2013-04-16 19:54:00,
2013-04-16 15:59:00,59.9,33.6,30.09,NW,315,5.0,8.0,37,0.00,,,0.01,meteohub,2013-04-16 19:59:00,
2013-04-16 16:04:00,59.5,34.5,30.08,NE,45,8.0,8.0,39,0.00,,,0.01,meteohub,2013-04-16 20:04:00,
2013-04-16 16:10:00,59.2,34.2,30.08,NW,315,4.0,8.0,39,0.00,,,0.01,meteohub,2013-04-16 20:10:00,
2013-04-16 16:15:00,59.4,34.3,30.08,NE,45,8.0,8.0,39,0.00,,,0.01,meteohub,2013-04-16 20:15:00,
2013-04-16 16:20:00,59.0,33.4,30.08,NW,315,3.0,8.0,38,0.00,,,0.01,meteohub,2013-04-16 20:20:00,
2013-04-16 16:25:00,58.5,33.6,30.09,NW,315,2.0,8.0,39,0.00,,,0.01,meteohub,2013-04-16 20:25:00,
2013-04-16 16:30:00,58.3,34.7,30.09,NW,315,3.0,8.0,41,0.00,,,0.01,meteohub,2013-04-16 20:30:00,
2013-04-16 16:35:00,58.1,34.0,30.09,West,270,3.0,7.0,40,0.00,,,0.01,meteohub,2013-04-16 20:35:00,
2013-04-16 16:41:00,58.1,34.5,30.09,North,0,4.0,6.0,41,0.00,,,0.01,meteohub,2013-04-16 20:41:00,
2013-04-16 16:46:00,58.3,35.2,30.09,NW,315,4.0,6.0,42,0.00,,,0.01,meteohub,2013-04-16 20:46:00,
2013-04-16 16:51:00,58.1,34.5,30.09,SW,225,4.0,6.0,41,0.00,,,0.01,meteohub,2013-04-16 20:51:00,
2013-04-16 16:56:00,58.3,35.2,30.09,North,0,3.0,7.0,42,0.00,,,0.01,meteohub,2013-04-16 20:56:00,
2013-04-16 17:01:00,58.5,36.0,30.09,NW,315,4.0,7.0,43,0.00,,,0.01,meteohub,2013-04-16 21:01:00,
2013-04-16 17:07:00,58.8,35.8,30.09,West,270,3.0,7.0,42,0.00,,,0.01,meteohub,2013-04-16 21:07:00,
2013-04-16 17:12:00,58.8,36.3,30.09,West,270,3.0,6.0,43,0.00,,,0.01,meteohub,2013-04-16 21:12:00,
2013-04-16 17:17:00,58.6,36.9,30.09,North,0,4.0,5.0,44,0.00,,,0.01,meteohub,2013-04-16 21:17:00,
2013-04-16 17:22:00,58.8,36.3,30.09,ESE,113,2.0,6.0,43,0.00,,,0.01,meteohub,2013-04-16 21:22:00,
2013-04-16 17:27:00,59.0,32.7,30.09,West,270,4.0,6.0,37,0.00,,,0.01,meteohub,2013-04-16 21:27:00,
2013-04-16 17:32:00,59.0,32.0,30.09,North,0,3.0,6.0,36,0.00,,,0.01,meteohub,2013-04-16 21:32:00,
2013-04-16 17:37:00,58.6,32.4,30.09,SW,225,0.0,6.0,37,0.00,,,0.01,meteohub,2013-04-16 21:37:00,
2013-04-16 17:42:00,58.5,32.9,30.09,NW,315,2.0,5.0,38,0.00,,,0.01,meteohub,2013-04-16 21:42:00,
2013-04-16 17:47:00,58.8,33.3,30.09,North,0,3.0,4.0,38,0.00,,,0.01,meteohub,2013-04-16 21:47:00,
2013-04-16 17:52:00,58.8,31.3,30.09,North,0,2.0,4.0,35,0.00,,,0.01,meteohub,2013-04-16 21:52:00,
2013-04-16 17:57:00,58.6,32.4,30.10,West,270,3.0,4.0,37,0.00,,,0.01,meteohub,2013-04-16 21:57:00,
2013-04-16 18:03:00,58.5,32.9,30.11,NW,315,3.0,4.0,38,0.00,,,0.01,meteohub,2013-04-16 22:03:00,
2013-04-16 18:08:00,58.5,32.9,30.11,NW,315,2.0,4.0,38,0.00,,,0.01,meteohub,2013-04-16 22:08:00,
2013-04-16 18:13:00,58.5,32.4,30.11,North,0,3.0,4.0,37,0.00,,,0.01,meteohub,2013-04-16 22:13:00,
2013-04-16 18:18:00,58.5,32.4,30.12,NW,315,3.0,5.0,37,0.00,,,0.01,meteohub,2013-04-16 22:18:00,
2013-04-16 18:23:00,58.5,32.4,30.12,West,270,2.0,5.0,37,0.00,,,0.01,meteohub,2013-04-16 22:23:00,
2013-04-16 18:29:00,58.3,31.5,30.12,NE,45,2.0,5.0,36,0.00,,,0.01,meteohub,2013-04-16 22:29:00,
2013-04-16 18:34:00,58.1,30.6,30.12,NW,315,0.0,5.0,35,0.00,,,0.01,meteohub,2013-04-16 22:34:00,
2013-04-16 18:39:00,57.9,30.4,30.12,North,0,2.0,5.0,35,0.00,,,0.01,meteohub,2013-04-16 22:39:00,
2013-04-16 18:44:00,57.7,29.5,30.12,NW,315,2.0,4.0,34,0.00,,,0.01,meteohub,2013-04-16 22:44:00,
2013-04-16 18:49:00,57.6,30.0,30.12,NW,315,2.0,4.0,35,0.00,,,0.01,meteohub,2013-04-16 22:49:00,
2013-04-16 18:54:00,57.6,30.0,30.12,NW,315,3.0,4.0,35,0.00,,,0.01,meteohub,2013-04-16 22:54:00,
2013-04-16 19:00:00,57.4,30.0,30.12,NW,315,2.0,4.0,35,0.00,,,0.01,meteohub,2013-04-16 23:00:00,
2013-04-16 19:05:00,57.4,30.0,30.12,NW,315,2.0,4.0,35,0.00,,,0.01,meteohub,2013-04-16 23:05:00,
2013-04-16 19:10:00,57.4,30.6,30.12,NE,45,3.0,4.0,36,0.00,,,0.01,meteohub,2013-04-16 23:10:00,
2013-04-16 19:15:00,57.4,31.3,30.12,North,0,3.0,4.0,37,0.00,,,0.01,meteohub,2013-04-16 23:15:00,
2013-04-16 19:20:00,57.4,32.0,30.12,NW,315,2.0,3.0,38,0.00,,,0.01,meteohub,2013-04-16 23:20:00,
2013-04-16 19:25:00,57.2,31.8,30.12,NW,315,2.0,4.0,38,0.00,,,0.01,meteohub,2013-04-16 23:25:00,
2013-04-16 19:30:00,57.2,31.8,30.12,NW,315,2.0,4.0,38,0.00,,,0.01,meteohub,2013-04-16 23:30:00,
2013-04-16 19:35:00,57.0,32.4,30.12,North,0,3.0,3.0,39,0.00,,,0.01,meteohub,2013-04-16 23:35:00,
2013-04-16 19:40:00,56.7,32.5,30.13,North,0,3.0,3.0,40,0.00,,,0.01,meteohub,2013-04-16 23:40:00,
2013-04-16 19:46:00,56.3,31.6,30.13,SW,225,4.0,4.0,39,0.00,,,0.01,meteohub,2013-04-16 23:46:00,
2013-04-16 19:51:00,55.9,32.5,30.12,NW,315,0.0,4.0,41,0.00,,,0.01,meteohub,2013-04-16 23:51:00,
2013-04-16 19:56:00,55.6,31.6,30.13,NW,315,2.0,4.0,40,0.00,,,0.01,meteohub,2013-04-16 23:56:00,
2013-04-16 20:01:00,55.4,32.0,30.13,North,0,2.0,4.0,41,0.00,,,0.01,meteohub,2013-04-17 00:01:00,
2013-04-16 20:06:00,55.2,32.5,30.13,NW,315,0.0,4.0,42,0.00,,,0.01,meteohub,2013-04-17 00:06:00,
2013-04-16 20:11:00,54.9,32.2,30.13,North,0,1.0,2.0,42,0.00,,,0.01,meteohub,2013-04-17 00:11:00,
2013-04-16 20:16:00,54.7,32.0,30.14,NE,45,4.0,4.0,42,0.00,,,0.01,meteohub,2013-04-17 00:16:00,
2013-04-16 20:21:00,54.5,31.8,30.14,NW,315,0.0,4.0,42,0.00,,,0.01,meteohub,2013-04-17 00:21:00,
2013-04-16 20:27:00,54.1,32.2,30.14,NW,315,0.0,4.0,43,0.00,,,0.01,meteohub,2013-04-17 00:27:00,
2013-04-16 20:32:00,54.0,32.5,30.14,NW,315,0.0,4.0,44,0.00,,,0.01,meteohub,2013-04-17 00:32:00,
2013-04-16 20:37:00,53.6,32.7,30.15,NW,315,0.0,2.0,45,0.00,,,0.01,meteohub,2013-04-17 00:37:00,
2013-04-16 20:42:00,53.2,34.0,30.16,NW,315,0.0,0.0,48,0.00,,,0.01,meteohub,2013-04-17 00:42:00,
2013-04-16 20:47:00,52.9,34.7,30.15,NW,315,0.0,0.0,50,0.00,,,0.01,meteohub,2013-04-17 00:47:00,
2013-04-16 20:52:00,52.3,35.2,30.15,NW,315,0.0,0.0,52,0.00,,,0.01,meteohub,2013-04-17 00:52:00,
2013-04-16 20:57:00,52.2,35.1,30.15,NW,315,0.0,0.0,52,0.00,,,0.01,meteohub,2013-04-17 00:57:00,
2013-04-16 21:02:00,51.6,35.6,30.16,NW,315,0.0,0.0,54,0.00,,,0.01,meteohub,2013-04-17 01:02:00,
2013-04-16 21:07:00,51.1,35.4,30.15,NW,315,0.0,0.0,55,0.00,,,0.01,meteohub,2013-04-17 01:07:00,
2013-04-16 21:12:00,50.5,35.1,30.16,NW,315,0.0,0.0,55,0.00,,,0.01,meteohub,2013-04-17 01:12:00,
2013-04-16 21:17:00,50.0,34.9,30.16,NW,315,0.0,0.0,56,0.00,,,0.01,meteohub,2013-04-17 01:17:00,
2013-04-16 21:22:00,49.3,35.1,30.16,NW,315,0.0,0.0,58,0.00,,,0.01,meteohub,2013-04-17 01:22:00,
2013-04-16 21:27:00,48.4,34.3,30.15,NW,315,0.0,0.0,58,0.00,,,0.01,meteohub,2013-04-17 01:27:00,
2013-04-16 21:32:00,47.8,34.7,30.16,NW,315,0.0,0.0,60,0.00,,,0.01,meteohub,2013-04-17 01:32:00,
2013-04-16 21:37:00,47.3,34.2,30.16,NW,315,0.0,0.0,60,0.00,,,0.01,meteohub,2013-04-17 01:37:00,
2013-04-16 21:42:00,46.8,34.0,30.17,NW,315,0.0,0.0,61,0.00,,,0.01,meteohub,2013-04-17 01:42:00,
2013-04-16 21:47:00,46.0,33.8,30.17,North,0,0.0,0.0,62,0.00,,,0.01,meteohub,2013-04-17 01:47:00,
2013-04-16 21:52:00,45.3,33.4,30.17,NE,45,0.0,0.0,63,0.00,,,0.01,meteohub,2013-04-17 01:52:00,
2013-04-16 21:57:00,45.3,33.4,30.16,North,0,0.0,0.0,63,0.00,,,0.01,meteohub,2013-04-17 01:57:00,
2013-04-16 22:02:00,45.1,33.6,30.16,North,0,0.0,0.0,64,0.00,,,0.01,meteohub,2013-04-17 02:02:00,
2013-04-16 22:07:00,45.0,33.4,30.17,North,0,0.0,0.0,64,0.00,,,0.01,meteohub,2013-04-17 02:07:00,
2013-04-16 22:12:00,44.6,33.6,30.17,North,0,0.0,0.0,65,0.00,,,0.01,meteohub,2013-04-17 02:12:00,
2013-04-16 22:17:00,44.2,33.6,30.17,North,0,0.0,0.0,66,0.00,,,0.01,meteohub,2013-04-17 02:17:00,
2013-04-16 22:22:00,43.7,33.4,30.17,North,0,0.0,0.0,67,0.00,,,0.01,meteohub,2013-04-17 02:22:00,
2013-04-16 22:27:00,43.5,33.3,30.17,North,0,0.0,0.0,67,0.00,,,0.01,meteohub,2013-04-17 02:27:00,
2013-04-16 22:32:00,43.3,33.4,30.17,North,0,0.0,0.0,68,0.00,,,0.01,meteohub,2013-04-17 02:32:00,
2013-04-16 22:37:00,43.3,33.8,30.17,North,0,0.0,0.0,69,0.00,,,0.01,meteohub,2013-04-17 02:37:00,
2013-04-16 22:42:00,43.2,33.6,30.18,North,0,0.0,0.0,69,0.00,,,0.01,meteohub,2013-04-17 02:42:00,
2013-04-16 22:47:00,43.2,34.0,30.17,North,0,0.0,0.0,70,0.00,,,0.01,meteohub,2013-04-17 02:47:00,
2013-04-16 22:52:00,43.2,34.3,30.17,North,0,0.0,0.0,71,0.00,,,0.01,meteohub,2013-04-17 02:52:00,
2013-04-16 22:57:00,43.0,34.2,30.18,North,0,0.0,0.0,71,0.00,,,0.01,meteohub,2013-04-17 02:57:00,
2013-04-16 23:02:00,43.0,34.5,30.19,North,0,0.0,0.0,72,0.00,,,0.01,meteohub,2013-04-17 03:02:00,
2013-04-16 23:07:00,43.2,34.7,30.19,North,0,0.0,0.0,72,0.00,,,0.01,meteohub,2013-04-17 03:07:00,
2013-04-16 23:12:00,43.3,35.2,30.19,North,0,0.0,0.0,73,0.00,,,0.01,meteohub,2013-04-17 03:12:00,
2013-04-16 23:17:00,43.7,35.6,30.19,North,0,0.0,0.0,73,0.00,,,0.01,meteohub,2013-04-17 03:17:00,
2013-04-16 23:22:00,43.7,35.6,30.19,North,0,0.0,0.0,73,0.00,,,0.01,meteohub,2013-04-17 03:22:00,
2013-04-16 23:27:00,43.5,35.4,30.19,North,0,0.0,0.0,73,0.00,,,0.01,meteohub,2013-04-17 03:27:00,
2013-04-16 23:32:00,43.3,35.2,30.18,North,0,0.0,0.0,73,0.00,,,0.01,meteohub,2013-04-17 03:32:00,
2013-04-16 23:37:00,43.2,35.1,30.19,North,0,0.0,0.0,73,0.00,,,0.01,meteohub,2013-04-17 03:37:00,
2013-04-16 23:42:00,42.8,34.7,30.19,North,0,0.0,0.0,73,0.00,,,0.01,meteohub,2013-04-17 03:42:00,
2013-04-16 23:47:00,42.6,34.9,30.18,North,0,0.0,0.0,74,0.00,,,0.01,meteohub,2013-04-17 03:47:00,
2013-04-16 23:53:00,42.4,34.7,30.19,West,270,0.0,0.0,74,0.00,,,0.01,meteohub,2013-04-17 03:53:00,
2013-04-16 23:58:00,42.4,34.7,30.19,West,270,0.0,0.0,74,0.00,,,0.01,meteohub,2013-04-17 03:58:00,